FW5715 Weather Reports


Display with metric or nautical units.
time (UTC)temp
F
wind
direction
speed
MPH
gust
MPH
rain 1hr
in
rain 24hr
in
rain mn
in
humidity
%
barometer
mb
20260504150536 62 180 6.0 12.0 0.00 0.00 0.00 55 1008.9
20260504140516 59 203 4.0 20.0 0.00 0.00 0.00 57 1009.1
20260504130516 56 180 1.0 8.0 0.00 0.00 0.00 61 1009.4
20260504110516 49 180 6.0 12.0 0.00 0.00 0.00 66 1009.2
20260504100516 49 203 4.0 10.0 0.00 0.00 0.00 64 1009.3
20260504081517 49 180 7.0 12.0 0.00 0.00 0.00 64 1010.3
20260504080518 49 203 6.0 12.0 0.00 0.00 0.00 64 1010.4
20260504050517 48 180 3.0 7.0 0.00 0.00 0.00 62 1012.2
20260504045517 48 180 4.0 8.0 0.00 0.00 0.00 61 1012.3
20260504044517 48 203 3.0 12.0 0.00 0.00 0.00 61 1012.3
20260504043517 48 180 2.0 7.0 0.00 0.00 0.00 61 1012.4
20260504042517 48 203 3.0 10.0 0.00 0.00 0.00 61 1012.4
20260504041517 48 203 1.0 5.0 0.00 0.00 0.00 61 1012.4
20260504040517 48 203 3.0 8.0 0.00 0.00 0.00 61 1012.3
20260504035517 48 180 4.0 8.0 0.00 0.00 0.00 63 1012.5
20260504034517 48 180 4.0 9.0 0.00 0.00 0.00 60 1012.5
20260504033517 49 180 2.0 7.0 0.00 0.00 0.00 59 1012.5
20260504032517 49 203 2.0 7.0 0.00 0.00 0.00 59 1012.6
20260504031517 49 203 1.0 5.0 0.00 0.00 0.00 59 1012.6
20260504030517 49 203 4.0 9.0 0.00 0.00 0.00 58 1012.7
20260504025517 50 180 1.0 7.0 0.00 0.00 0.00 57 1012.6
20260504024537 50 203 3.0 8.0 0.00 0.00 0.00 57 1012.8
20260504023517 50 180 1.0 7.0 0.00 0.00 0.00 56 1012.8
20260504022517 50 180 3.0 8.0 0.00 0.00 0.00 57 1012.7
20260504021517 50 0.0 4.0 0.00 0.00 0.00 56 1012.8
20260504020517 51 0.0 0.0 0.00 0.00 0.00 56 1012.7
20260504015517 51 0.0 2.0 0.00 0.00 0.00 56 1012.5
20260504014517 51 0.0 1.0 0.00 0.00 0.00 55 1012.6
20260504013517 51 0.0 1.0 0.00 0.00 0.00 54 1012.5
20260504012517 52 0.0 3.0 0.00 0.00 0.00 54 1012.3
20260504011517 52 0.0 0.0 0.00 0.00 0.00 53 1012.5
20260504010517 52 0.0 2.0 0.00 0.00 0.00 52 1012.3
20260504005517 53 0.0 5.0 0.00 0.00 0.00 52 1012.3
20260504004517 53 0.0 1.0 0.00 0.00 0.00 51 1012.2
20260504003517 53 0.0 2.0 0.00 0.00 0.00 51 1012.2
20260504002517 54 0.0 6.0 0.00 0.00 0.00 50 1012.2
20260504001517 55 203 1.0 10.0 0.00 0.00 0.00 48 1012.1
20260504000517 55 0.0 6.0 0.00 0.00 0.00 48 1011.9
20260503235517 55 0.0 6.0 0.00 0.00 0.00 47 1012.0
20260503234517 56 248 1.0 7.0 0.00 0.00 0.00 47 1011.9
20260503233517 56 0.0 6.0 0.00 0.00 0.00 47 1011.9
20260503232517 56 0.0 3.0 0.00 0.00 0.00 45 1012.0
20260503231517 56 0.0 1.0 0.00 0.00 0.00 46 1012.0
20260503230517 56 0.0 2.0 0.00 0.00 0.00 45 1012.1
20260503225517 56 180 1.0 10.0 0.00 0.00 0.00 46 1011.9
20260503224517 56 0.0 7.0 0.00 0.00 0.00 46 1012.0
20260503223517 56 248 1.0 12.0 0.00 0.00 0.00 44 1012.0
20260503222517 56 0.0 1.0 0.00 0.00 0.00 46 1012.1
20260503221517 56 203 1.0 8.0 0.00 0.00 0.00 43 1012.1
20260503220517 57 0.0 6.0 0.00 0.00 0.00 44 1012.3
20260503215517 57 270 2.0 11.0 0.00 0.00 0.00 45 1012.2
20260503214516 57 0.0 9.0 0.00 0.00 0.00 46 1012.1
20260503213517 57 0.0 6.0 0.00 0.00 0.00 44 1011.9
20260503212517 58 270 3.0 13.0 0.00 0.00 0.00 42 1011.9
20260503211516 59 225 1.0 10.0 0.00 0.00 0.00 43 1012.0
20260503210517 58 203 3.0 15.0 0.00 0.00 0.00 43 1011.9
20260503205516 59 203 2.0 15.0 0.00 0.00 0.00 40 1012.0
20260503204557 59 248 1.0 12.0 0.00 0.00 0.00 42 1012.1
20260503203516 59 270 2.0 14.0 0.00 0.00 0.00 44 1012.2
20260503202516 57 270 5.0 16.0 0.00 0.00 0.00 40 1012.3
20260503201517 58 270 7.0 16.0 0.00 0.00 0.00 36 1012.4
20260503200517 59 270 1.0 13.0 0.00 0.00 0.00 40 1012.4
20260503195517 58 270 5.0 15.0 0.00 0.00 0.00 38 1012.6
20260503194516 59 270 2.0 14.0 0.00 0.00 0.00 41 1012.9
20260503193516 58 293 2.0 15.0 0.00 0.00 0.00 41 1013.0
20260503192537 57 270 3.0 16.0 0.00 0.00 0.00 42 1013.1
20260503191536 58 270 5.0 17.0 0.00 0.00 0.00 41 1013.4
20260503190516 58 0.0 7.0 0.00 0.00 0.00 46 1013.5
20260503185516 57 270 1.0 7.0 0.00 0.00 0.00 47 1013.4
20260503184537 58 270 1.0 10.0 0.00 0.00 0.00 43 1013.6
20260503183516 57 270 8.0 16.0 0.00 0.00 0.00 43 1013.8
20260503182537 56 0.0 9.0 0.00 0.00 0.00 44 1013.8
20260503181516 56 270 1.0 10.0 0.00 0.00 0.00 45 1014.1
20260503180516 56 270 3.0 10.0 0.00 0.00 0.00 45 1014.3
20260503175516 56 270 1.0 14.0 0.00 0.00 0.00 43 1014.3
20260503174516 57 180 5.0 20.0 0.00 0.00 0.00 46 1014.5
20260503173516 56 270 6.0 18.0 0.00 0.00 0.00 47 1014.6
20260503172537 55 225 3.0 11.0 0.00 0.00 0.00 46 1014.7
20260503171516 55 270 3.0 21.0 0.00 0.00 0.00 45 1014.7
20260503170516 55 270 1.0 11.0 0.00 0.00 0.00 50 1014.9